Location: Tucson
(32.2217°N, 110.9265°W)
Time: 18:46:01
(UTC-07:00)

N. Korean satellite - Pass Details

Date: 29 September 2021
Orbit: 450 x 495 km, 97.3° (Epoch: 22 October)

Event Time Altitude Azimuth Distance (km) Brightness Sun altitude
Rises 05:40:35 0° 8° (N) 2,543 10.4 -8.5°
Reaches altitude 10° 05:42:38 10° 7° (N) 1,667 9.4 -8.0°
Maximum altitude 05:46:12 72° 283° (WNW) 516 6.5 -7.3°
Drops below altitude 10° 05:49:48 10° 198° (SSW) 1,675 9.1 -6.5°
Sets 05:51:53 0° 197° (SSW) 2,557 10.0 -6.1°
